ECMWFNIL_prec_cthk_021.txt.gz
RH
40 40 40 40 39 38 37 37 37 38 39 39 39 38 38 39 38 36 36 36 36 35 35 36 36 36 37 38 39 39 39 38 37 34 33 33 33 32 32 31 30 29
42 43 44 44 43 41 39 38 38 38 39 40 41 41 41 40 40 38 37 37 37 37 36 36 36 37 37 38 39 40 40 39 38 36 35 34 33 34 34 33 31 30
43 44 44 44 43 42 41 40 40 39 40 40 40 40 41 41 41 40 39 38 38 38 38 37 37 37 37 38 39 40 40 40 40 39 38 36 35 35 35 35 34 31
46 47 48 47 43 40 40 42 41 40 40 41 41 41 41 41 41 42 42 41 40 39 39 39 38 38 38 38 39 40 41 42 42 41 41 38 37 36 35 35 35 33
49 50 51 52 49 45 42 43 44 43 41 41 42 43 43 44 43 43 44 44 43 42 41 41 41 41 41 41 41 41 41 42 44 44 43 41 39 38 37 37 35 34
48 49 50 52 53 52 47 45 47 48 46 45 45 46 48 49 49 48 47 47 47 46 45 44 43 44 44 45 45 45 44 44 45 46 45 44 43 40 39 38 37 36
43 44 44 46 49 51 49 46 46 50 51 52 53 54 54 54 54 54 53 51 51 50 50 49 48 47 47 48 49 49 50 50 49 49 47 46 45 44 42 40 39 38
38 39 40 42 43 45 46 46 47 50 53 56 59 61 61 61 60 59 58 57 56 55 54 53 53 53 52 51 51 52 54 55 55 54 53 51 49 47 46 45 43 41
33 35 37 39 41 43 44 45 47 47 48 52 58 61 63 65 66 66 65 64 63 62 60 59 58 58 58 58 57 56 56 57 58 57 57 56 55 52 50 49 47 45
31 33 35 35 36 37 37 38 40 41 40 41 45 51 54 58 61 64 67 69 69 69 67 66 65 64 64 63 63 62 61 60 60 60 59 59 58 57 55 53 51 47
25 26 27 28 28 28 27 27 28 30 31 31 32 36 41 46 50 54 59 65 70 73 73 73 72 71 70 69 69 68 67 65 64 63 62 61 60 59 58 56 54 49
22 22 22 22 23 22 21 20 19 19 21 22 24 26 29 34 39 45 49 55 61 67 74 77 77 76 75 74 74 73 72 71 69 68 66 64 63 62 61 59 56 51
24 24 23 22 22 22 21 21 20 19 18 19 20 19 21 24 28 34 41 47 52 57 64 72 78 80 80 79 78 77 76 75 74 72 71 69 67 65 65 62 58 54
24 23 22 21 20 19 19 18 17 18 20 23 25 23 21 20 21 23 28 35 43 48 53 59 66 75 81 83 82 81 80 79 78 76 74 73 72 70 68 66 63 59
26 26 24 23 21 20 19 16 14 14 16 21 27 30 29 26 23 22 22 25 31 38 45 49 53 60 69 77 83 85 84 82 81 81 79 77 75 74 73 71 67 65
26 28 27 27 27 25 25 23 21 20 18 18 21 25 28 29 27 25 24 23 25 29 34 38 42 47 53 60 69 78 85 86 84 82 82 81 79 77 77 75 73 71
28 29 30 30 29 28 27 26 26 26 25 24 23 22 22 23 24 23 22 22 22 23 25 27 29 33 38 43 50 58 70 81 86 86 83 82 81 80 79 78 78 76
30 30 30 30 29 28 27 26 26 25 25 25 24 23 22 20 20 20 19 19 18 18 19 20 19 20 22 27 33 40 47 59 73 83 86 84 81 81 81 80 81 81
27 26 25 24 23 23 23 23 23 22 22 23 22 22 21 19 18 18 17 17 17 16 15 15 14 14 13 15 18 25 33 40 50 64 78 86 85 83 82 82 81 82
24 22 20 19 18 18 18 18 18 18 18 20 21 20 20 19 18 17 16 16 16 16 15 14 12 11 10 11 11 13 20 29 36 44 55 71 82 86 85 83 83 83
22 21 20 19 18 18 18 17 17 17 16 17 18 19 19 19 19 18 17 16 15 15 15 15 14 12 10 10 10 10 11 17 27 35 40 49 64 78 85 85 85 85
22 22 22 21 20 19 19 19 18 17 17 17 17 18 17 18 19 19 18 18 16 15 15 14 13 13 12 11 9 9 10 11 16 26 34 39 46 59 74 84 86 87
26 26 26 26 25 22 20 19 19 19 18 18 18 18 17 17 17 17 17 17 17 16 15 14 12 12 12 12 10 9 10 11 12 16 25 34 38 44 56 70 81 86
30 30 29 28 28 28 25 22 20 19 19 19 19 18 17 17 16 16 16 16 15 15 14 13 12 10 10 10 10 9 9 11 12 12 16 23 32 39 45 53 65 77
29 29 29 28 28 29 30 28 25 22 20 19 20 20 19 17 16 16 16 15 15 14 14 13 12 10 9 10 10 10 10 10 11 12 12 14 22 33 42 45 49 62
28 29 29 29 28 27 29 30 30 28 25 24 24 24 23 21 18 16 16 15 14 14 14 14 13 11 10 10 10 11 11 11 11 12 12 12 13 20 33 41 44 51

ECMWFNIL_prec_cthk_024.txt.gz
RH
41 41 42 43 43 43 42 42 43 44 44 45 45 45 45 45 45 45 45 44 44 43 42 41 40 40 39 38 37 38 39 40 41 42 43 43 43 42 40 38 36 35
41 40 40 41 41 42 42 42 42 43 44 45 46 46 46 46 46 46 45 45 45 44 44 43 43 43 42 41 40 39 39 40 41 42 43 43 43 43 42 41 39 37
41 40 38 38 39 40 40 40 40 40 41 43 45 46 46 47 47 47 47 46 45 45 44 44 44 44 44 44 43 42 41 40 40 42 43 43 43 43 43 43 42 40
41 39 37 36 36 37 37 37 36 36 36 37 39 42 44 45 47 48 48 48 47 46 45 45 45 45 46 46 46 46 45 43 41 41 42 43 44 44 44 44 43 42
39 37 35 34 34 35 35 35 34 33 33 33 34 37 39 42 45 47 49 50 50 50 48 47 45 45 46 47 48 48 48 47 46 44 43 42 43 44 45 45 45 44
42 41 39 37 36 35 33 33 33 33 34 34 35 36 38 39 41 43 46 49 52 54 55 54 53 50 48 48 48 49 49 49 49 49 48 46 45 45 46 47 46 46
43 40 38 35 32 30 28 29 31 32 32 32 33 34 36 37 37 39 40 43 47 51 53 55 57 57 56 54 53 53 53 53 53 52 52 51 51 50 49 49 49 48
36 32 29 27 25 24 24 24 25 27 27 28 29 30 32 33 34 35 36 37 40 43 44 45 47 50 53 55 58 61 62 62 61 60 59 58 57 56 54 54 53 51
34 31 28 26 25 25 24 24 25 26 27 27 28 29 31 31 33 33 34 35 36 37 39 40 41 43 44 45 50 58 66 69 70 68 67 67 65 64 63 61 59 57
38 37 35 34 33 31 31 31 30 29 29 28 28 30 31 32 32 32 33 34 34 35 35 36 39 40 40 40 41 47 55 65 72 74 73 73 72 71 70 69 66 63
41 41 40 41 41 40 39 38 37 36 34 32 30 29 29 29 29 29 29 29 29 30 30 31 33 34 36 37 38 41 44 51 62 70 74 76 76 76 75 74 72 70
42 41 40 40 39 38 36 34 33 32 32 32 30 29 27 26 25 24 23 22 21 21 21 21 22 23 25 27 30 32 35 40 48 58 66 72 75 78 79 78 76 74
34 32 31 29 28 27 26 25 24 24 24 24 25 25 24 23 22 21 20 19 18 16 15 14 13 14 15 17 19 21 24 28 33 40 50 59 67 73 77 80 80 79
24 23 22 22 22 22 22 22 21 21 20 20 20 20 20 19 19 19 18 17 15 14 13 12 12 12 12 13 13 15 17 19 22 26 32 40 50 59 68 75 80 82
22 21 21 20 20 21 21 21 21 21 20 20 19 18 17 16 16 15 14 14 12 11 11 10 10 10 11 12 12 13 13 14 15 18 20 24 29 37 48 59 69 78
25 24 23 22 21 21 20 20 20 19 19 18 17 16 16 15 14 13 12 12 11 10 10 10 9 9 9 11 12 14 15 14 13 13 14 17 19 22 27 34 46 58
30 28 27 26 25 25 23 22 21 19 18 17 16 15 14 14 14 13 13 13 13 12 12 12 12 12 12 12 12 14 16 17 16 15 13 13 15 18 19 20 24 32
35 34 32 31 30 29 27 24 22 20 18 16 15 14 14 13 13 12 12 12 12 13 12 13 13 15 16 17 18 17 17 18 18 18 17 15 15 16 18 18 17 18
38 36 34 33 31 29 26 24 22 20 18 17 16 15 14 13 13 12 12 12 12 12 12 12 12 12 14 16 18 18 19 19 19 18 18 18 18 17 18 18 18 17
38 36 34 32 29 28 26 25 23 22 21 20 19 18 16 15 14 13 12 11 11 11 11 11 11 11 11 13 13 14 15 16 17 18 18 18 19 19 20 20 18 18
36 34 32 30 28 27 26 25 25 24 22 22 21 20 19 17 17 16 15 14 14 14 13 12 11 10 11 12 13 13 14 14 15 16 16 17 17 18 19 20 20 20
34 32 30 28 27 27 26 26 25 24 23 22 22 22 21 20 20 19 18 18 17 16 16 15 13 12 12 12 12 12 14 16 18 17 16 17 17 16 17 18 19 21
31 30 28 27 27 26 25 25 24 23 23 23 23 23 22 21 21 21 20 19 18 17 17 16 15 13 13 13 12 12 12 14 17 19 19 18 16 15 16 17 17 19
30 29 27 27 26 26 25 25 24 24 24 23 23 23 22 21 21 21 20 20 20 20 20 21 19 16 14 15 14 13 13 12 14 17 20 20 19 17 15 15 15 15
27 27 27 27 26 26 26 25 24 24 23 23 23 24 25 24 25 27 28 26 27 28 28 28 26 22 20 20 20 18 18 16 15 16 18 18 18 18 17 16 15 14
25 26 26 26 26 25 24 23 23 23 24 25 27 28 30 30 30 32 33 31 29 31 31 31 30 28 25 25 25 25 24 24 24 22 20 18 17 17 18 18 17 15

ECMWFNIL_prec_cthk_030.txt.gz
RH
43 45 46 46 45 45 46 46 46 44 40 37 38 40 44 45 45 45 45 44 44 43 41 40 40 41 42 42 43 45 46 47 48 49 49 50 53 55 57 59 60 60
39 39 37 37 35 34 33 33 34 33 30 29 30 30 31 31 32 34 36 38 40 41 41 40 40 38 38 38 39 40 42 44 46 47 48 51 53 54 56 58 60 61
35 32 30 29 28 26 26 26 26 26 25 24 24 24 24 24 24 26 28 30 32 33 34 37 38 39 39 38 37 37 38 39 40 41 42 45 50 53 55 57 58 60
29 26 24 23 22 20 20 20 20 21 20 20 20 20 20 20 21 23 25 26 26 26 25 25 27 31 34 37 38 38 38 39 38 38 37 38 40 44 47 51 54 58
21 20 20 19 17 15 14 14 15 16 17 18 20 21 21 21 22 24 25 27 27 27 26 23 22 22 24 27 31 34 36 38 40 40 39 38 36 36 37 40 43 47
19 20 21 21 19 17 15 14 14 15 17 18 20 22 23 25 27 28 29 29 29 29 28 27 25 23 22 21 23 25 28 31 35 39 41 41 40 37 34 33 32 33
25 25 25 25 25 24 24 22 21 21 21 21 21 22 23 24 26 28 29 29 27 26 24 23 23 23 23 22 21 21 23 24 27 30 35 39 41 41 38 35 31 29
26 25 22 21 22 23 25 25 24 22 21 21 21 20 19 19 20 21 22 23 22 21 19 18 18 18 19 20 21 20 20 21 21 22 24 28 33 36 38 38 35 32
28 25 22 20 20 21 23 23 23 22 21 20 20 19 18 17 17 17 17 17 17 17 17 16 16 16 17 18 19 20 20 20 20 19 19 20 23 26 30 32 34 33
32 27 25 24 23 23 23 23 23 22 22 21 21 20 19 19 18 18 17 17 16 16 16 15 15 16 16 17 17 18 19 20 21 21 20 19 19 21 22 24 26 28
30 28 27 26 25 25 24 24 23 23 22 22 21 20 20 19 19 18 17 17 16 16 15 15 15 14 14 14 14 14 15 16 17 18 19 18 17 17 18 19 20 22
29 28 27 26 26 25 25 24 24 23 22 21 21 20 19 19 18 18 17 16 16 15 15 14 13 13 13 13 12 12 11 11 12 13 14 15 15 14 14 14 15 16
30 30 29 29 29 28 28 27 26 26 24 23 22 21 20 19 19 18 18 17 16 15 15 14 14 13 13 13 13 12 13 12 12 11 11 11 12 12 12 11 11 11
36 36 35 35 34 33 32 31 29 27 25 24 22 21 20 20 19 19 18 17 17 16 16 15 15 14 14 14 15 16 17 17 17 16 15 14 13 12 11 11 10 10
42 41 40 38 36 34 32 30 27 25 23 22 21 20 19 19 18 17 17 17 16 16 16 15 15 15 15 16 18 19 20 21 22 22 23 21 20 17 15 14 13 12
44 41 38 36 34 32 30 27 25 23 22 22 21 21 20 20 19 19 18 18 18 17 17 17 17 16 17 19 20 21 21 23 23 24 25 25 25 23 21 19 18 17
40 37 35 33 33 32 30 27 25 24 24 24 24 23 23 23 22 22 21 21 21 20 20 19 19 19 20 20 21 21 22 24 24 24 24 24 25 24 23 21 20 20
36 35 35 35 34 32 30 28 27 26 26 26 25 25 26 25 25 25 24 23 24 23 22 21 20 20 21 22 22 22 23 26 27 25 24 23 23 23 22 21 20 20
36 37 37 36 34 32 30 29 28 28 28 27 27 28 28 27 26 25 25 25 25 24 23 22 21 22 24 25 26 26 27 30 30 28 25 23 22 22 22 21 21 21
40 39 37 34 32 31 30 30 30 29 29 29 29 28 27 25 25 25 25 25 24 23 22 21 21 24 27 27 27 27 28 29 30 29 28 26 24 23 24 23 22 23
40 37 35 33 32 32 32 31 31 30 30 29 27 26 26 26 26 25 24 23 22 22 23 22 24 26 26 25 25 25 25 26 28 28 27 26 24 23 24 25 23 24
37 35 35 34 33 33 31 30 29 29 29 28 28 27 28 28 27 25 23 22 22 24 25 25 24 26 26 26 27 28 29 30 29 29 27 25 24 24 24 24 24 26
35 34 34 34 32 31 29 28 29 29 30 31 30 29 29 28 26 24 23 23 24 26 27 26 25 26 28 30 33 37 38 38 38 37 35 34 33 33 33 32 32 34
35 34 33 32 30 29 29 30 32 33 33 33 31 29 28 26 23 21 22 26 28 28 28 27 25 27 32 38 44 47 46 47 49 49 47 47 46 46 46 46 45 47
35 34 32 30 29 30 32 34 34 35 33 31 30 29 26 23 22 23 25 28 29 28 27 27 27 33 43 49 51 52 53 55 58 57 55 54 53 51 51 51 51 52
35 33 31 31 32 34 36 37 36 34 32 31 30 27 23 22 24 26 28 28 29 30 30 32 37 45 52 56 58 59 60 60 61 57 52 49 46 44 43 43 44 45

ECMWFNIL_prec_cthk_033.txt.gz
RH
49 50 48 45 46 47 49 51 51 50 47 42 38 33 30 28 26 26 27 27 27 29 29 29 29 29 29 28 27 26 25 25 26 28 30 31 32 33 35 38 39 41
48 49 48 45 43 41 42 44 46 47 45 42 37 33 30 28 27 27 25 22 21 23 24 24 24 24 24 23 23 23 23 23 24 25 27 27 27 27 27 27 28 30
47 48 48 47 44 40 36 34 35 37 37 36 33 31 29 28 27 25 22 19 19 20 20 20 21 20 20 21 21 21 21 21 22 24 26 27 28 28 28 27 26 25
41 42 44 43 41 36 31 27 26 27 27 27 25 24 22 21 20 18 17 16 17 17 18 18 19 19 19 19 19 20 21 21 21 22 23 25 26 27 28 29 28 27
40 39 38 36 34 31 27 25 24 22 21 20 19 18 17 16 16 16 16 16 15 15 16 17 17 18 17 17 17 17 18 20 20 20 20 20 21 21 22 23 24 25
43 42 40 38 36 33 30 27 24 22 21 20 19 19 19 19 19 20 20 21 21 20 19 18 18 18 17 17 17 17 16 17 17 18 17 17 17 17 16 16 16 17
34 34 33 34 34 32 31 29 28 27 26 26 25 25 24 24 24 24 25 26 27 27 26 24 22 19 18 17 17 17 17 16 16 16 16 16 15 15 15 14 14 13
27 26 26 27 28 29 30 30 31 31 31 32 31 30 29 28 28 27 27 26 26 26 24 22 20 18 17 17 16 16 16 16 16 15 15 15 15 15 15 15 14 14
23 22 23 23 23 24 25 27 28 28 29 31 31 32 31 29 28 26 24 23 21 20 18 17 17 17 16 16 15 15 14 14 14 13 13 14 13 14 14 14 15 14
23 24 25 26 26 26 26 26 27 27 27 27 27 27 27 26 24 22 21 20 19 18 17 17 17 16 15 15 14 14 13 12 12 11 11 11 11 12 12 12 13 13
29 31 31 32 32 31 31 30 29 29 28 28 27 26 25 24 23 22 20 19 18 17 17 16 15 14 14 13 13 13 13 13 13 12 12 12 11 11 11 11 12 11
34 35 35 35 35 34 33 32 31 30 30 29 28 27 26 24 22 20 19 17 17 16 15 15 14 14 14 13 14 15 15 15 15 14 14 14 14 13 13 14 14 13
36 36 37 37 37 36 36 35 33 32 32 31 30 28 25 22 20 18 17 17 16 16 16 15 15 16 16 16 17 18 18 17 17 16 16 16 15 15 15 16 16 16
38 39 39 39 39 39 39 38 36 34 32 30 29 26 23 20 18 17 17 17 17 17 17 17 17 18 19 19 20 20 20 19 18 18 17 16 16 15 15 15 15 16
41 43 43 43 43 42 41 38 35 31 29 28 26 24 21 19 18 18 18 18 18 18 19 20 20 21 21 21 21 20 19 18 18 17 16 16 15 15 14 14 14 15
46 46 45 43 40 38 36 33 30 28 28 28 26 23 21 20 20 20 20 20 21 22 23 23 23 22 22 21 21 20 20 19 17 17 16 15 14 13 13 13 14 15
44 42 40 37 35 33 32 30 30 31 31 29 26 24 23 23 23 23 24 24 25 24 24 24 23 22 22 22 22 22 21 20 18 16 15 15 15 16 16 16 16 17
38 36 35 34 33 33 33 33 34 33 31 28 25 24 24 24 25 25 25 25 24 24 23 22 22 23 23 23 22 21 20 19 18 17 17 18 19 20 20 19 19 19
35 35 35 35 35 35 35 36 34 31 28 26 24 25 25 25 25 24 23 23 23 22 22 22 23 23 23 23 21 20 20 20 20 21 21 21 21 21 20 19 19 19
37 37 37 37 37 38 37 35 32 28 27 27 26 26 25 23 23 22 22 22 22 23 24 24 24 24 23 21 20 20 22 23 24 24 22 21 21 21 21 21 22 24
39 39 39 40 40 39 35 32 29 28 28 28 27 25 23 22 22 22 23 24 24 25 25 25 24 23 21 20 21 23 25 25 25 24 23 22 22 22 23 26 30 34
43 42 41 41 39 35 32 30 29 30 30 28 26 24 23 23 24 25 26 26 27 27 26 23 22 21 21 22 25 26 26 26 25 24 23 21 21 24 29 34 39 43
44 43 41 39 35 32 31 31 32 31 30 28 26 24 24 26 27 28 28 28 28 27 25 22 20 21 24 26 26 27 26 25 24 23 22 22 25 33 39 44 48 52
43 42 39 35 33 32 32 33 33 32 30 28 26 26 27 28 28 29 29 29 27 25 23 21 21 24 27 26 26 27 27 26 25 24 25 29 36 45 50 52 53 54
43 41 37 34 33 33 34 34 34 32 30 28 28 28 29 29 30 29 28 27 26 24 23 24 25 26 27 26 27 29 30 29 29 29 33 41 49 53 56 57 56 55
42 40 37 34 34 33 35 35 34 32 31 31 31 30 30 30 30 28 27 26 25 24 25 28 28 26 27 29 31 31 30 29 30 34 41 51 57 59 60 62 62 57